{"data":{"norad_id":67263,"intl_designator":"2025-313R","name":"DCS-1","alt_names":[],"object_type":"PAYLOAD","status":"ACTIVE","operator":null,"country":"CIS","launch_date":"2025-12-28","launch_site_code":"VOSTO","launch_vehicle":null,"mission":null,"orbit_class":"UNKNOWN","rcs_meters":null,"size_class":null,"mass_kg":null,"dimensions":null,"purposes":[],"wikipedia_slug":null,"has_3d_model":false,"image_url":null,"decayed_at":null,"tle_current":{"epoch":"2026-09-20T10:39:22.288608Z","epoch_age_seconds":107858,"freshness":"FRESH","line1":"1 67263U 25313R   26263.44400797  .00005809  00000+0  23627-3 0  9996","line2":"2 67263  97.3873 336.8514 0014612  34.1679 326.0496 15.24822268 40461","mean_motion":15.24822268,"eccentricity":0.0014612,"inclination_deg":97.3873,"raan_deg":336.8514,"arg_perigee_deg":34.1679,"mean_anomaly_deg":326.0496,"bstar":0.00023627,"rev_number":4046,"period_min":94.437235750023,"perigee_km":481.28153123057,"apogee_km":501.35682997276,"semimajor_km":6869.4561806017,"source":"CELESTRAK","updated_at":"2026-09-21T09:00:16.514923Z"}}}